Waarnemingen

Advertentie
Mijn weer
Landsort, Zweden (2582): temperatuur & dauwpunt: 29.07.2020 19:00:00 - 04.08.2020 19:00:00 (CEST)Landsort, Zweden (2582): windsnelheid & windstoten: 29.07.2020 19:00:00 - 04.08.2020 19:00:00 (CEST)Landsort, Zweden (2582): windrichting: 29.07.2020 19:00:00 - 04.08.2020 19:00:00 (CEST)Landsort, Zweden (2582): luchtdruk: 29.07.2020 19:00:00 - 04.08.2020 19:00:00 (CEST)Landsort, Zweden (2582): zicht: 29.07.2020 19:00:00 - 04.08.2020 19:00:00 (CEST)Landsort, Zweden (2582): neerslag: 29.07.2020 19:00:00 - 04.08.2020 19:00:00 (CEST)
Datum & Tijd tt [°C] td [°C] ff [km/u] ff [kn] fx [km/u] fx [kn] dd ppp [hPa] vv [km] rr [mm]
04.08.2020 19:00:00 17,4 14,1 18 10 25 13 ZW 1010,0 39 0,0
04.08.2020 18:00:00 17,7 14,2 15 8 22 12 ZW 1009,8 37 0,0
04.08.2020 17:00:00 17,8 14,3 15 8 22 12 ZW 1009,7 37 0,0
04.08.2020 16:00:00 17,8 13,9 16 8 22 12 ZZW 1009,7 34 0,0
04.08.2020 15:00:00 18,2 13,1 13 7 22 12 ZW 1009,6 34 0,0
04.08.2020 14:00:00 18,2 12,6 14 8 20 11 ZW 1009,6 46 0,0
04.08.2020 13:00:00 18,5 12,7 11 6 16 9 ZW 1009,6 44 0,0
04.08.2020 12:00:00 17,2 13,1 12 7 16 8 WZW 1009,5 35 0,0
04.08.2020 11:00:00 16,6 12,1 9 5 13 7 WZW 1009,3 37 0,0
04.08.2020 10:00:00 16,1 11,7 9 5 14 8 W 1009,3 42 0,0
04.08.2020 09:00:00 15,4 11,6 10 5 14 7 W 1009,1 41 0,0
04.08.2020 08:00:00 15,4 11,6 8 5 16 8 W 1008,9 38 0,0
04.08.2020 07:00:00 14,9 10,9 9 5 19 10 WNW 1008,8 48 0,0
04.08.2020 06:00:00 14,8 11,0 14 8 22 12 NW 1008,5 50 0,0
04.08.2020 05:00:00 14,8 10,2 16 9 25 13 NW 1008,2 50 0,0
04.08.2020 04:00:00 15,4 10,6 16 9 26 14 WNW 1008,6 50 0,0
04.08.2020 03:00:00 15,8 11,2 16 9 25 13 WNW 1008,5 50 0,0
04.08.2020 02:00:00 16,3 11,0 18 10 23 12 WNW 1008,6 50 0,0
04.08.2020 01:00:00 16,5 12,1 14 8 20 11 WNW 1008,3 50 0,0
04.08.2020 00:00:00 16,5 13,0 15 8 22 12 W 1007,8 50 0,0
03.08.2020 23:00:00 16,7 12,8 16 9 23 12 WZW 1007,6 50 0,0
03.08.2020 22:00:00 16,3 14,0 17 9 26 14 ZW 1007,5 46 0,0
03.08.2020 21:00:00 16,7 14,2 21 12 30 16 ZW 1007,2 44 0,0
03.08.2020 20:00:00 17,2 14,1 19 11 30 16 ZZW 1006,9 44 0,0
03.08.2020 19:00:00 17,3 14,2 23 13 34 18 ZZW 1006,7 39 0,0
03.08.2020 18:00:00 17,4 14,1 24 13 31 17 ZZW 1006,7 45 0,0
03.08.2020 17:00:00 18,0 13,5 21 12 34 18 ZZW 1006,9 40 0,0
03.08.2020 16:00:00 17,8 13,1 24 13 32 17 ZZW 1007,0 29 0,0
03.08.2020 15:00:00 17,6 12,5 22 12 31 17 ZZW 1007,2 35 0,0
03.08.2020 14:00:00 17,6 12,3 20 11 29 16 ZZW 1007,3 39 0,0
03.08.2020 13:00:00 17,6 12,1 16 9 29 16 ZW 1007,2 26 0,0
03.08.2020 12:00:00 16,7 11,4 23 12 37 20 WZW 1007,2 26 0,0
03.08.2020 11:00:00 16,4 12,0 26 14 37 20 WZW 1007,0 26 0,0
03.08.2020 10:00:00 16,0 12,4 21 12 35 19 WZW 1006,9 33 0,0
03.08.2020 09:00:00 15,3 12,4 26 14 32 17 WZW 1007,1 37 0,0
03.08.2020 08:00:00 15,2 12,9 27 14 32 18 W 1007,0 33 0,0
03.08.2020 07:00:00 15,0 13,0 25 14 31 17 WZW 1006,9 30 0,0
03.08.2020 06:00:00 15,0 13,0 21 11 31 17 WZW 1006,8 38 0,0
03.08.2020 05:00:00 15,0 13,2 20 11 25 13 WZW 1006,8 44 0,0
03.08.2020 04:00:00 15,1 13,3 19 10 25 13 WZW 1006,8 50 0,0
03.08.2020 03:00:00 15,5 13,5 18 10 30 16 W 1006,9 50 0,0
03.08.2020 02:00:00 16,0 14,7 15 8 22 12 W 1006,9 20 0,0
03.08.2020 01:00:00 16,7 15,6 23 12 30 16 WNW 1006,8 30 0,0
03.08.2020 00:00:00 15,6 14,8 11 6 19 10 WZW 1006,4 9 0,0
02.08.2020 23:00:00 16,2 15,4 14 8 26 14 ZW 1006,5 10 0,0
02.08.2020 22:00:00 16,2 15,2 20 11 29 16 ZW 1006,7 12 0,0
02.08.2020 21:00:00 16,3 14,8 21 11 39 21 ZZW 1006,8 17 0,0
02.08.2020 20:00:00 16,4 14,9 26 14 39 21 ZZW 1006,8 14 0,0
02.08.2020 19:00:00 16,6 14,8 23 12 38 21 ZZW 1007,2 17 0,0
02.08.2020 18:00:00 16,8 14,4 32 17 40 22 Z 1007,6 29 0,0
02.08.2020 17:00:00 17,1 14,0 29 16 37 20 Z 1008,1 37 0,0
02.08.2020 16:00:00 17,4 13,7 29 16 36 20 Z 1008,7 44 0,0
02.08.2020 15:00:00 18,2 14,1 25 13 33 18 ZZW 1009,4 34 0,0
02.08.2020 14:00:00 17,4 14,3 24 13 32 17 Z 1010,0 38 0,0
02.08.2020 13:00:00 17,9 14,6 19 11 28 15 Z 1010,2 32 0,0
02.08.2020 12:00:00 17,9 13,6 21 11 29 15 ZZW 1010,7 47 0,0
02.08.2020 11:00:00 17,8 13,9 19 10 29 16 ZZW 1011,1 37 0,0
02.08.2020 10:00:00 17,6 13,9 17 9 28 15 ZZW 1011,2 40 0,0
02.08.2020 09:00:00 17,1 14,4 19 10 28 15 ZW 1011,5 35 0,0
02.08.2020 08:00:00 17,2 14,7 19 10 29 15 ZZW 1011,7 41 0,0
02.08.2020 07:00:00 16,4 14,2 18 10 25 14 ZZW 1012,1 50 0,0
02.08.2020 06:00:00 16,2 14,2 16 9 23 13 ZZW 1012,3 50 0,0
02.08.2020 05:00:00 16,0 14,4 18 10 23 12 Z 1012,6 49 0,0
02.08.2020 04:00:00 16,2 14,6 18 10 23 12 Z 1013,1 49 0,0
02.08.2020 03:00:00 15,8 14,7 15 8 20 11 Z 1013,4 36 0,0
02.08.2020 02:00:00 15,7 14,7 12 7 17 9 Z 1014,1 31 0,0
02.08.2020 01:00:00 15,8 15,0 13 7 17 9 Z 1014,7 17 0,0
02.08.2020 00:00:00 15,9 14,9 10 5 14 8 Z 1015,1 23 0,0
01.08.2020 23:00:00 15,8 14,7 10 5 16 9 Z 1015,3 28 0,0
01.08.2020 22:00:00 15,8 14,7 10 6 15 8 Z 1015,8 20 0,0
01.08.2020 21:00:00 16,1 14,8 10 5 16 9 Z 1015,9 27 0,0
01.08.2020 20:00:00 16,5 14,7 11 6 16 9 Z 1016,2 41 0,0
01.08.2020 19:00:00 17,1 14,7 13 7 16 9 Z 1016,5 38 0,0
01.08.2020 18:00:00 17,6 14,7 13 7 16 9 ZZO 1017,0 43 0,0
01.08.2020 17:00:00 17,8 14,5 12 7 15 8 ZZO 1017,2 44 0,0
01.08.2020 16:00:00 18,1 14,0 11 6 16 9 ZZO 1017,5 43 0,0
01.08.2020 15:00:00 18,2 13,9 13 7 16 8 ZZO 1017,8 40 0,0
01.08.2020 14:00:00 19,6 13,3 10 6 15 8 Z 1018,1 37 0,0
01.08.2020 13:00:00 18,6 13,9 11 6 16 8 Z 1018,2 34 0,0
01.08.2020 12:00:00 19,2 15,3 11 6 14 7 ZO 1018,3 36 0,0
01.08.2020 11:00:00 19,7 14,5 8 4 10 6 ZO 1018,2 39 0,0
01.08.2020 10:00:00 19,4 14,2 7 4 19 10 NNW 1018,1 40 0,0
01.08.2020 09:00:00 17,9 14,4 16 9 23 12 NW 1017,9 40 0,0
01.08.2020 08:00:00 16,9 13,6 20 11 24 13 NW 1017,9 35 0,0
01.08.2020 07:00:00 15,7 13,4 16 9 21 11 NW 1017,9 34 0,0
01.08.2020 06:00:00 14,7 12,9 11 6 18 10 WNW 1018,0 29 0,0
01.08.2020 05:00:00 15,0 12,9 16 9 20 11 NNW 1017,9 42 0,0
01.08.2020 04:00:00 - - - - 20 11 - - - -
01.08.2020 03:00:00 - - - - 18 10 - - - -
01.08.2020 02:00:00 15,7 13,5 13 7 - - NW 1018,2 42 0,0
01.08.2020 01:00:00 15,8 12,7 12 6 16 8 NNW 1018,2 49 0,0
01.08.2020 00:00:00 16,4 12,2 11 6 13 7 N 1018,1 50 0,0
31.07.2020 23:00:00 17,2 12,1 10 6 19 10 N 1017,9 50 0,0
31.07.2020 22:00:00 18,0 12,2 11 6 18 10 N 1017,6 48 0,0
31.07.2020 21:00:00 18,7 12,2 13 7 19 10 NNW 1017,2 50 0,0
31.07.2020 20:00:00 20,1 12,3 9 5 24 13 NNW 1016,8 50 0,0
31.07.2020 19:00:00 20,7 12,4 16 9 29 16 NNW 1016,6 50 0,0
31.07.2020 18:00:00 21,7 12,0 19 10 34 18 N 1016,2 46 0,0
31.07.2020 17:00:00 20,7 12,4 26 14 38 21 NNW 1016,0 48 0,0
31.07.2020 16:00:00 21,6 11,9 25 14 43 23 NNW 1015,5 50 0,0
31.07.2020 15:00:00 21,0 11,9 24 13 42 23 NNW 1015,2 46 0,0
31.07.2020 14:00:00 20,1 11,8 30 16 39 21 NNW 1014,9 39 0,0
31.07.2020 13:00:00 18,6 12,4 27 14 37 20 NNW 1014,8 41 0,0
31.07.2020 12:00:00 18,7 12,9 24 13 39 21 NNW 1014,3 39 0,0
31.07.2020 11:00:00 17,8 12,9 21 12 35 19 NNW 1013,8 38 0,0
31.07.2020 10:00:00 18,0 13,7 23 13 42 23 N 1013,0 37 0,0
31.07.2020 09:00:00 17,3 13,4 21 12 39 21 N 1012,0 48 0,0
31.07.2020 08:00:00 15,9 13,4 23 13 36 19 NNW 1011,1 43 0,0
31.07.2020 07:00:00 15,4 13,4 18 10 35 19 N 1010,1 50 0,0
31.07.2020 06:00:00 14,3 12,9 21 11 39 21 N 1009,1 50 0,0
31.07.2020 05:00:00 14,5 13,2 24 13 40 21 NNO 1008,0 50 0,2
31.07.2020 04:00:00 15,0 14,0 23 12 39 21 NNW 1006,5 6 0,0
31.07.2020 03:00:00 15,5 14,0 29 16 41 22 NW 1005,7 50 0,0
31.07.2020 02:00:00 15,3 14,3 27 15 41 22 WNW 1005,2 18 0,0
31.07.2020 01:00:00 15,4 14,3 35 19 48 26 WNW 1004,9 28 0,1
31.07.2020 00:00:00 15,4 14,1 34 18 45 25 W 1004,8 9 1,0
30.07.2020 23:00:00 15,7 14,1 29 15 39 21 W 1005,1 11 0,5
30.07.2020 22:00:00 15,8 13,8 28 15 37 20 W 1005,2 36 0,1
30.07.2020 21:00:00 15,7 13,7 24 13 33 18 W 1005,3 50 0,0
30.07.2020 20:00:00 15,6 13,1 26 14 38 21 W 1005,1 50 0,8
30.07.2020 19:00:00 18,6 12,8 29 16 44 24 W 1004,7 32 0,0
30.07.2020 18:00:00 17,7 13,0 24 13 - - WZW 1004,6 39 0,0
30.07.2020 17:00:00 17,7 13,0 30 16 40 21 W 1004,7 38 0,0
30.07.2020 16:00:00 17,9 13,4 32 17 41 22 WZW 1004,8 47 0,0
30.07.2020 15:00:00 18,2 13,3 31 17 42 23 WZW 1005,0 35 -
30.07.2020 14:00:00 16,3 13,2 39 21 47 26 W 1005,2 17 0,0
30.07.2020 13:00:00 17,0 13,5 33 18 41 22 WZW 1005,1 21 0,0
30.07.2020 12:00:00 16,3 13,4 28 15 37 20 WZW 1005,2 25 0,0
30.07.2020 11:00:00 16,3 13,2 27 14 35 19 W 1005,2 26 0,0
30.07.2020 10:00:00 15,4 13,4 26 14 36 20 W 1005,1 14 0,1
30.07.2020 09:00:00 15,4 13,1 28 15 41 22 W 1004,8 32 0,0
30.07.2020 08:00:00 15,0 12,9 33 18 48 26 W 1004,3 38 0,0
30.07.2020 07:00:00 14,5 12,7 36 19 49 26 W 1003,7 26 0,0
30.07.2020 06:00:00 14,4 12,8 42 23 55 30 W 1003,3 27 0,0
30.07.2020 05:00:00 14,4 12,6 45 24 66 35 W 1002,8 26 0,0
30.07.2020 04:00:00 14,3 12,3 54 29 68 37 WZW 1002,4 14 0,0
30.07.2020 03:00:00 14,8 12,5 53 29 68 37 WZW 1002,5 27 0,5
30.07.2020 02:00:00 14,3 13,2 40 21 63 34 WZW 1002,9 3,7 2,0
30.07.2020 01:00:00 15,2 13,2 37 20 50 27 WZW 1003,4 21 0,7
30.07.2020 00:00:00 15,0 13,2 39 21 53 28 ZW 1003,9 12 0,0
29.07.2020 23:00:00 15,6 12,7 39 21 51 28 ZW 1004,3 50 0,0
29.07.2020 22:00:00 16,2 12,4 31 17 45 25 ZW 1004,6 50 0,0
29.07.2020 21:00:00 16,1 12,6 18 10 27 14 ZZW 1004,7 45 0,0
29.07.2020 20:00:00 15,5 12,1 18 10 36 20 ZZW 1005,1 34 0,0
29.07.2020 19:00:00 16,4 13,1 24 13 34 19 ZW 1005,6 39 0,0

tt = temperatuur
td = dauwpunt
ff = windsnelheid
fx = windstoten
dd = windrichting
ppp = luchtdruk
vv = zicht
rr = neerslag

Weerstations in de omgeving